Flag for Germany Weather past 2 weeks in Pirmasens, Rhineland-Palatinate, Germany

Now
55 °F

Scattered clouds.


Feels Like: 54 °F
Forecast: 44 / 66 °F
Wind: 6 mph from Southwest

Location: Ramstein

Current Time: Jul 29, 2015 at 9:31:03 AM

Latest Report: Jul 29, 2015 at 9:03 AM


Visibility: N/A

Pressure: 29.84 "Hg

Humidity: 82%

Dew point: 50 °F

Location of PirmasensLocation

Historic Weather in Pirmasens — Graph

°F

Pirmasens temperature yesterday

Maximum temperature yesterday: 69 °F (at 1:58 PM)
Minimum temperature yesterday: 55 °F (at 4:58 AM)
Average temperature yesterday: 62 °F

Past Weeks' High & Low Weather Summary

 TemperatureHumidityPressure
High94 °F (Jul 17, 5:58 PM)100% (Jul 18, 2:58 AM)30.14 "Hg (Jul 18, 2:58 AM)
Low39 °F (Jul 26, 5:03 AM)26% (Jul 16, 5:58 PM)29.64 "Hg (Jul 27, 4:58 AM)
Average70 °F66%29.92 "Hg
* Reported Jul 14 7:58 AM — Jul 29 7:58 AM, Pirmasens, Weather by CustomWeather, © 2015

Note: Actual official high and low records may vary slightly from our data, if they occured in-between our weather recording intervals... More about our weather records

Advertising

Pirmasens weather history for previous 24 hours

 ConditionsComfort  
Time TempWeatherWind HumidityBarometerVisibility
7:58 AM
Wed, Jul 29
55 °FScattered clouds.3 mph85%29.84 "HgN/A
6:58 AM55 °FPartly sunny.5 mph88%29.85 "HgN/A
5:58 AM55 °FPassing clouds.7 mph82%29.86 "HgN/A
4:58 AM55 °FPassing clouds.6 mph82%29.86 "HgN/A
3:58 AM55 °FPassing clouds.6 mph82%29.85 "HgN/A
2:58 AM55 °FOvercast.9 mph84%29.85 "HgN/A
1:58 AM55 °FPassing clouds.6 mph82%29.86 "HgN/A
12:58 AM56 °FPassing clouds.6 mph82%29.88 "HgN/A
11:58 PM
Tue, Jul 28
56 °FPassing clouds.6 mph84%29.88 "HgN/A
11:00 PM55 °FClear.6 mph88%29.88 "HgN/A
9:58 PM58 °FLight rain. Scattered clouds.13 mph71%29.87 "HgN/A
8:58 PM63 °FPassing clouds.6 mph49%29.83 "HgN/A
7:58 PM64 °FSunny.10 mph46%29.83 "HgN/A
6:58 PM65 °FSunny.12 mph46%29.82 "HgN/A
5:58 PM66 °FPassing clouds.16 mph43%29.80 "HgN/A
4:58 PM67 °FPassing clouds.15 mph42%29.81 "HgN/A
3:58 PM68 °FScattered clouds.10 mph40%29.81 "HgN/A
2:58 PM68 °FBroken clouds.14 mph38%29.81 "HgN/A
1:58 PM69 °FBroken clouds.13 mph36%29.81 "HgN/A
12:58 PM68 °FScattered clouds.16 mph39%29.81 "HgN/A
11:58 AM66 °FPassing clouds.16 mph44%29.81 "HgN/A
10:58 AM64 °FScattered clouds.18 mph49%29.81 "HgN/A
9:58 AM62 °FSunny.13 mph55%29.82 "HgN/A
Weather by CustomWeather, © 2015

See weather overviewHow to use our weather pages